Springdale, AR

4:22 AM CST on January 20, 2018 (GMT -0600)
Springdale Municipal

Weather History for KASG - February, 2013

Change the Weather History Date:

Sunday, February 10, 2013

  Actual Average Record
Temperature  
Mean Temperature 55 °F -  
Max Temperature 59 °F 48 °F 73 °F (1999)
Min Temperature 50 °F 33 °F -4 °F (2011)
Degree Days  
Heating Degree Days 10    
Growing Degree Days 5 (Base 50)    
Moisture  
Dew Point 42 °F    
Average Humidity 64    
Maximum Humidity 94    
Minimum Humidity 33    
Precipitation  
Precipitation 0.00 in - - ()
Sea Level Pressure  
Sea Level Pressure 29.75 in    
Wind  
Wind Speed 13 mph (SW)    
Max Wind Speed 18 mph    
Max Gust Speed 25 mph    
Visibility 9 miles    
Events Rain    
Averages and records for this station are not official NWS values.
T = Trace of Precipitation, MM = Missing Value Source: NWS Daily Summary

Daily Weather History Graph

Daily Weather History Graph

Search for Another Location

Airport or City:

Trip Planner

Search our weather history database for the weather conditions in past years. The results will help you decide how hot, cold, wet, or windy it might be!

Date:

Astronomy

Feb. 10, 2013 Rise Set
Actual Time 7:09 AM CST 5:52 PM CST
Civil Twilight 6:42 AM CST 6:19 PM CST
Nautical Twilight 6:12 AM CST 6:49 PM CST
Astronomical Twilight 5:42 AM CST 7:19 PM CST
Moon 7:01 AM CST (2/10) 6:41 PM CST (2/10)
Length of Visible Light 11h 36m
Length of Day
10h 43m
New Moon, 0% of the Moon is Illuminated
Feb 10
New Moon
Feb 17
First Quarter
Feb 25
Full
Mar 4
Last Quarter
Mar 11
New

Hourly Weather History & Observations

Time (CST) Temp. Dew Point Humidity Pressure Visibility Wind Dir Wind Speed Gust Speed Precip Events Conditions
5:48 AM 51.8 °F 50.0 °F 94% 29.68 in 6.0 mi SSE 13.8 mph 20.7 mph N/A Rain Heavy Rain
6:24 AM 53.6 °F 50.0 °F 88% 29.66 in 6.0 mi SSE 15.0 mph 21.9 mph N/A Rain Light Rain
6:48 AM 53.6 °F 50.0 °F 88% 29.66 in 6.0 mi SSE 15.0 mph 21.9 mph N/A Rain Light Rain
6:49 AM 53.6 °F 50.0 °F 88% 29.68 in 10.0 mi South 8.1 mph - N/A   Overcast
7:49 AM 53.6 °F 50.0 °F 88% 29.70 in 10.0 mi SSW 10.4 mph - N/A   Mostly Cloudy
8:48 AM 55.4 °F 50.0 °F 82% 29.72 in 10.0 mi SSW 10.4 mph 17.3 mph N/A   Overcast
9:21 AM 55.4 °F 50.0 °F 82% 29.73 in 10.0 mi SW 11.5 mph 19.6 mph N/A   Mostly Cloudy
9:48 AM 53.6 °F 50.0 °F 88% 29.73 in 10.0 mi SW 18.4 mph 25.3 mph N/A   Mostly Cloudy
10:48 AM 57.2 °F 48.2 °F 72% 29.74 in 10.0 mi SW 13.8 mph 25.3 mph N/A   Partly Cloudy
11:48 AM 57.2 °F 46.4 °F 67% 29.73 in 10.0 mi WSW 11.5 mph 25.3 mph N/A   Partly Cloudy
12:48 PM 59.0 °F 39.2 °F 48% 29.72 in 10.0 mi WSW 11.5 mph 25.3 mph N/A   Partly Cloudy
1:48 PM 59.0 °F 37.4 °F 45% 29.72 in 10.0 mi SW 11.5 mph 25.3 mph N/A   Scattered Clouds
2:48 PM 59.0 °F 37.4 °F 45% 29.74 in 10.0 mi West 11.5 mph 25.3 mph N/A   Scattered Clouds
3:48 PM 59.0 °F 39.2 °F 48% 29.76 in 10.0 mi West 11.5 mph 23.0 mph N/A   Partly Cloudy
4:48 PM 57.2 °F 28.4 °F 33% 29.79 in 10.0 mi SW 17.3 mph 25.3 mph N/A   Partly Cloudy
5:48 PM 55.4 °F 28.4 °F 36% 29.82 in 10.0 mi WSW 11.5 mph 20.7 mph N/A   Partly Cloudy
6:48 PM 51.8 °F 28.4 °F 41% 29.87 in 10.0 mi WSW 9.2 mph - N/A   Partly Cloudy
7:48 PM 51.8 °F 28.4 °F 41% 29.91 in 10.0 mi West 10.4 mph - N/A   Partly Cloudy
8:48 PM 50.0 °F 28.4 °F 43% 29.96 in 10.0 mi WNW 15.0 mph 20.7 mph N/A   Clear